Flag for U.S.A. Weather past 2 weeks in Bloomington, Indiana, U.S.A.

Now
51 °F

Passing clouds.


Feels Like: 46 °F
Forecast: 43 / 62 °F
Wind: 15 mph from Southwest

Location: Monroe County Airport

Current Time: Apr 21, 2015 at 10:52:54 AM

Latest Report: Apr 21, 2015 at 9:53 AM


Visibility: 10 mi

Pressure: 29.80 "Hg

Humidity: 48%

Dew point: 32 °F

Location of BloomingtonLocation

Historic Weather in Bloomington — Graph

°F

Bloomington temperature yesterday

Maximum temperature yesterday: 60 °F (at 12:03 AM)
Minimum temperature yesterday: 47 °F (at 11:53 PM)
Average temperature yesterday: 54 °F

Past Weeks' High & Low Weather Summary

 TemperatureHumidityPressure
High77 °F (Apr 9, 3:53 PM)100% (Apr 7, 5:01 PM)30.29 "Hg (Apr 7, 5:01 PM)
Low35 °F (Apr 11, 6:53 AM)17% (Apr 12, 2:53 PM)29.36 "Hg (Apr 19, 8:53 PM)
Average60 °F68%29.97 "Hg
* Reported Apr 6 8:53 AM — Apr 21 8:53 AM, Bloomington, Weather by CustomWeather, © 2015

Note: Actual official high and low records may vary slightly from our data, if they occured in-between our weather recording intervals... More about our weather records

Advertising

Bloomington weather history for previous 24 hours

 ConditionsComfort  
Time TempWeatherWind HumidityBarometerVisibility
8:53 AM
Tue, Apr 21
49 °FSunny.12 mph52%29.80 "Hg10 mi
7:53 AM46 °FClear.13 mph58%29.79 "Hg10 mi
6:53 AM45 °FClear.12 mph60%29.78 "Hg10 mi
5:53 AM45 °FClear.9 mph63%29.78 "Hg10 mi
4:53 AM44 °FClear.9 mph65%29.78 "Hg10 mi
3:53 AM44 °FClear.7 mph68%29.78 "Hg10 mi
2:53 AM45 °FClear.9 mph68%29.79 "Hg10 mi
1:53 AM45 °FClear.7 mph68%29.80 "Hg10 mi
12:53 AM45 °FPassing clouds.7 mph68%29.80 "Hg10 mi
11:53 PM
Mon, Apr 20
47 °FOvercast.6 mph66%29.80 "Hg10 mi
10:53 PM48 °FOvercast.8 mph59%29.79 "Hg10 mi
9:53 PM49 °FMostly cloudy.12 mph59%29.77 "Hg10 mi
8:53 PM50 °FOvercast.12 mph57%29.75 "Hg10 mi
7:53 PM50 °FOvercast.14 mph57%29.72 "Hg10 mi
6:53 PM52 °FMore clouds than sun.13 mph57%29.70 "Hg10 mi
5:53 PM54 °FMostly cloudy.13 mph53%29.67 "Hg10 mi
4:53 PM54 °FMore clouds than sun.21 mph53%29.65 "Hg10 mi
3:53 PM56 °FBroken clouds.15 mph53%29.63 "Hg10 mi
2:53 PM55 °FMostly cloudy.16 mph64%29.61 "Hg10 mi
1:53 PM53 °FMostly cloudy.13 mph69%29.60 "Hg10 mi
12:53 PM53 °FMostly cloudy.12 mph69%29.59 "Hg10 mi
11:53 AM51 °FOvercast.9 mph80%29.57 "Hg10 mi
10:53 AM50 °FLight rain. Overcast.17 mph89%29.54 "Hg10 mi
10:00 AM52 °FMostly cloudy.13 mph89%29.52 "Hg10 mi
Weather by CustomWeather, © 2015

See weather overviewHow to use our weather pages